Powrót do katalogu

DELTA 1 DEB

AktywnySSO
NORAD 14908·DEBRIS·🇺🇸 United States

Wystrzelony Mar 5, 1978 z Vandenberg Space Force Base

Loading…

Następne Przeloty (najbliższe 24 godziny)

TLE

ŚwieżeSource: Space-Track

Epoka: Sep 14, 2026, 09:41 UTC

1 14908U 78026GH  26257.40359287  .00001166  00000-0  57513-3 0  9993
2 14908  99.0678 322.9239 0088431 274.7879  84.3201 14.17514954284262

Śledź DELTA 1 DEB w czasie rzeczywistym z AllMySat

Download on the App Store